Location: Moscow
(30.9132°N, 94.8252°W)
Time: 12:37:18
(UTC+00:00)

SL-16 R/B - Pass Details

Date: 15 November 2025
Orbit: 985 x 1006 km, 99.8° (Epoch: 11 December)

Event Time Altitude Azimuth Distance (km) Brightness Sun altitude
Rises 09:27:48 0° 147° (SSE) 3,697 5.8 -42.5°
Reaches altitude 10° 09:30:21 10° 141° (SE) 2,754 5.2 -42.0°
Enters shadow 09:32:31 22° 131° (SE) 2,018 4.4 -41.5°
